EHI
0 0 0 0 0 0 0 0 0 0 0 0 0 0 0 0 0 0 0 3 17 40 47 29 14 11 10 16 36 63 83 92 94 94 94 92 89 83 73 63 56 44 27 13 8 6 2 0 0
0 0 0 0 0 0 0 0 0 0 0 0 0 0 0 0 0 0 0 4 17 36 40 28 20 18 15 19 35 61 81 91 94 95 95 94 90 82 69 57 46 34 20 11 7 4 2 0 0
0 0 0 0 0 0 0 0 0 0 0 0 0 0 0 0 0 0 1 6 16 26 31 34 34 30 26 26 38 60 79 88 92 94 94 91 86 76 63 48 33 22 13 8 5 2 1 0 0
0 0 0 0 0 0 0 0 0 0 0 0 0 0 0 0 0 2 5 9 15 17 23 37 45 41 35 35 43 60 75 83 87 89 87 84 77 69 56 38 24 15 9 6 3 1 0 0 0
0 0 0 0 0 0 0 0 0 0 0 0 0 0 1 4 5 5 8 11 13 12 18 35 48 46 41 40 45 57 67 73 76 77 76 74 70 63 49 30 17 11 7 4 1 0 0 0 0
0 0 0 0 0 0 0 0 0 0 0 0 0 0 4 11 15 13 11 10 10 9 15 30 42 42 40 40 43 49 56 59 60 61 62 62 58 52 39 25 14 9 5 2 0 0 0 0 0
0 0 0 0 0 0 0 0 0 0 0 0 0 0 7 19 25 21 14 9 7 7 11 20 29 31 30 32 35 38 41 43 42 41 44 44 40 33 24 17 11 7 4 1 0 0 0 0 0
0 0 0 0 0 0 0 0 0 0 0 0 0 0 11 29 37 32 22 12 7 6 7 10 15 17 16 18 22 24 25 25 24 22 23 23 19 13 9 8 8 6 2 0 1 1 1 0 0
0 0 0 0 0 0 0 0 0 0 0 0 0 1 16 41 54 48 36 24 16 10 6 5 8 9 7 7 11 12 13 13 11 8 7 7 5 3 4 6 7 3 0 1 2 2 2 1 0
0 0 0 0 0 0 0 0 0 0 0 0 0 3 20 46 61 58 47 37 27 16 8 5 6 6 4 4 5 5 6 8 6 4 3 2 1 1 3 8 6 2 0 1 2 3 2 1 0
0 0 0 0 0 0 0 0 0 0 0 0 0 4 19 40 55 53 45 37 29 18 10 6 6 6 5 4 4 3 4 7 7 7 6 4 2 2 3 5 4 2 1 1 2 2 1 0 0
0 0 0 0 0 0 0 0 0 0 0 0 0 4 15 31 41 41 34 29 23 17 11 7 6 8 8 6 5 4 5 6 8 11 10 6 4 3 3 3 4 4 3 2 1 1 0 0 0
0 0 0 0 0 0 0 0 0 0 0 0 1 3 9 19 26 28 28 26 24 21 16 12 11 14 15 12 8 6 7 7 8 10 9 7 4 4 4 5 5 5 4 3 2 1 1 0 0
0 0 0 0 0 0 0 0 0 0 0 0 1 3 5 7 13 22 31 36 36 33 27 23 22 24 24 19 12 9 10 10 9 8 9 8 7 7 7 7 6 5 5 4 2 2 1 0 0
0 0 0 0 0 0 0 0 0 0 0 0 1 2 3 3 6 17 34 47 50 47 42 35 32 35 36 29 23 20 18 16 14 12 12 12 11 11 11 9 9 10 10 7 4 2 1 1 1
0 0 0 0 0 0 0 0 0 0 0 0 0 1 2 1 3 12 30 49 58 59 56 48 43 47 49 45 39 34 30 28 25 20 17 16 15 14 16 17 17 19 17 12 7 4 3 2 2
0 0 0 0 0 0 0 0 0 0 0 0 0 1 1 1 1 8 24 45 62 71 70 65 62 63 65 63 57 50 45 43 37 30 25 21 17 17 20 24 25 24 20 13 8 5 4 3 3
0 0 0 0 0 0 0 0 0 0 0 0 0 0 1 1 3 8 21 41 64 79 83 81 80 81 82 78 71 63 56 50 42 34 28 23 20 20 22 24 23 20 16 11 7 4 3 3 2
0 0 0 0 0 0 0 0 0 0 0 1 1 1 2 5 8 13 21 37 60 80 89 91 92 94 92 86 78 67 56 46 37 29 25 21 19 18 18 17 15 12 10 8 6 3 1 1 1
0 0 0 0 0 0 0 0 0 0 1 3 5 6 8 12 16 19 24 35 54 73 87 92 95 96 92 84 72 59 47 37 28 23 20 16 13 11 9 9 9 7 5 4 3 1 0 0 0
0 0 0 0 0 0 0 0 0 0 2 7 13 18 21 24 27 27 28 35 48 65 78 87 91 92 88 77 61 48 38 30 23 18 14 10 7 5 3 3 4 4 3 2 1 0 0 0 0
0 0 0 0 0 0 0 0 0 0 3 12 24 32 36 37 35 34 36 41 51 63 76 84 87 87 79 65 51 41 33 27 20 12 7 4 3 2 1 1 1 2 1 1 0 0 0 0 0
0 0 0 0 0 0 0 0 0 1 6 17 30 40 44 42 39 41 46 54 61 69 77 81 80 73 61 48 40 33 26 20 13 6 3 1 1 0 0 0 0 0 0 0 0 0 0 0 0
0 0 0 0 0 0 0 0 1 3 9 21 32 40 43 40 39 43 50 57 63 67 68 66 59 48 36 30 26 21 15 10 5 2 1 0 0 0 0 0 0 0 0 0 0 0 0 0 0
0 0 0 0 0 0 0 1 3 6 13 21 29 33 34 33 33 36 39 42 46 48 46 41 32 23 17 15 13 10 7 4 2 0 0 0 0 0 0 0 0 0 0 0 0 0 0 0 0
0 0 0 0 0 0 0 1 3 7 12 19 24 25 23 22 22 22 22 21 22 23 22 19 14 10 7 6 4 3 3 2 1 0 0 0 0 0 0 0 0 0 0 0 0 0 0 0 0
0 0 0 0 0 0 0 0 1 4 9 17 20 19 15 12 11 10 9 7 6 7 7 6 5 4 2 1 1 1 1 0 0 0 0 0 0 0 0 0 0 0 0 0 0 0 0 0 0
0 0 0 0 0 0 0 0 0 3 9 16 17 13 7 4 3 3 3 2 1 1 1 1 1 1 0 0 0 0 0 0 0 0 0 0 0 0 0 0 0 0 0 0 0 0 0 0 0
0 0 0 0 0 0 0 0 3 9 14 15 12 6 2 0 0 0 0 0 0 0 0 0 0 0 0 0 0 0 0 0 0 0 0 0 0 0 0 0 0 0 0 0 0 0 0 0 0
0 0 0 0 0 0 0 1 7 16 19 15 9 4 1 0 0 0 0 0 0 0 0 0 0 0 0 0 0 0 0 0 0 0 0 0 0 0 0 0 0 0 0 0 0 0 0 0 0
Wind_Speed
7 7 7 6 9 8 3 2 3 3 3 4 3 4 4 5 6 5 6 12 14 16 18 18 14 14 13 12 13 14 15 16 16 15 15 14 13 12 12 12 11 11 11 11 11 11 10 10 10
7 6 7 7 9 8 2 2 2 5 5 3 1 2 3 1 4 6 9 13 15 16 16 17 16 14 13 12 12 14 16 17 16 16 16 15 14 13 12 12 11 11 11 10 10 10 9 9 8
8 7 7 8 10 10 4 1 4 4 2 3 2 2 3 3 4 6 9 16 16 15 15 17 17 15 14 13 12 13 15 16 16 16 15 14 13 12 11 11 11 10 10 9 9 9 8 8 7
7 7 7 10 15 12 9 6 7 8 4 4 4 2 2 4 3 7 14 16 16 16 15 18 17 16 14 14 13 13 14 15 15 15 14 13 12 12 11 10 10 9 9 9 8 8 7 6 6
7 8 12 15 18 14 10 9 10 12 8 5 6 4 2 5 7 12 16 16 16 16 15 18 15 15 15 15 14 12 13 12 12 13 12 12 11 10 10 10 9 8 8 8 7 7 6 5 5
8 9 15 18 19 15 12 11 12 13 11 8 7 7 3 9 10 14 16 15 15 15 15 17 16 16 15 15 13 12 11 11 11 11 11 10 10 9 9 9 8 7 7 6 7 6 6 5 4
12 12 19 21 18 15 12 10 12 13 12 9 7 6 6 10 11 15 15 14 14 15 14 16 17 16 16 13 13 11 10 10 10 10 10 10 10 9 9 8 7 7 6 6 6 5 5 4 3
9 10 18 19 18 16 10 9 10 11 10 5 6 8 6 13 14 15 14 13 14 14 14 15 16 16 16 15 14 12 11 10 10 10 10 10 10 9 8 9 8 6 5 5 5 5 4 4 3
8 11 16 16 14 12 8 10 8 6 8 7 9 6 3 17 17 16 15 14 13 13 13 13 15 14 14 14 14 14 12 11 11 11 10 10 10 11 10 8 8 6 5 4 4 4 4 4 6
10 13 16 9 9 8 6 8 6 7 11 11 10 6 9 18 19 19 18 17 17 16 15 13 14 14 13 11 11 10 11 11 11 10 11 9 7 5 5 10 7 5 5 5 4 4 6 9 6
10 12 9 7 9 9 8 9 8 11 12 11 12 12 15 18 19 19 19 18 18 17 16 15 14 13 13 9 9 7 7 8 10 10 9 7 6 5 5 5 8 7 8 7 7 8 5 4 1
11 11 10 9 8 9 10 9 10 12 13 8 9 11 16 19 20 20 19 18 17 17 17 15 15 13 12 10 8 8 7 6 7 8 9 7 5 5 4 4 4 5 4 3 4 3 3 3 3
15 11 11 13 12 12 12 14 13 14 12 9 9 12 17 19 20 19 17 17 17 17 16 16 15 13 11 9 7 8 7 7 7 6 8 7 6 6 5 4 2 4 3 5 4 3 3 3 4
10 12 12 13 14 13 14 15 13 12 8 9 11 14 17 19 19 18 18 17 17 17 16 15 15 14 12 10 8 6 6 5 5 5 6 7 5 4 5 5 4 4 3 2 2 2 3 3 1
7 10 12 14 15 12 11 15 16 10 6 8 11 13 15 17 18 18 19 18 17 16 16 15 15 14 13 12 10 7 6 6 5 4 5 6 6 5 5 4 4 3 2 2 2 2 2 2 2
10 11 12 11 12 11 11 15 12 5 6 7 9 10 12 14 17 17 18 17 16 15 15 15 13 15 14 11 9 6 5 6 4 3 4 5 6 5 5 4 3 3 3 3 3 3 2 2 2
11 12 11 9 9 9 13 13 8 2 5 6 7 8 10 12 15 16 16 16 15 15 15 15 14 14 14 12 8 6 4 3 2 2 2 3 4 4 4 3 2 3 2 2 2 2 2 2 1
10 11 10 10 8 8 12 13 8 5 6 7 6 7 8 10 12 13 14 14 14 14 14 14 14 14 13 11 8 6 5 3 2 1 1 0 1 2 2 2 3 3 2 1 1 2 1 1 1
5 8 9 7 3 7 11 13 11 8 8 8 6 5 6 7 7 7 10 12 13 14 15 15 15 14 12 10 9 8 6 4 3 2 1 1 1 2 2 2 3 3 3 4 4 3 3 1 0
12 12 11 9 6 8 11 13 12 9 7 4 4 4 5 5 4 3 6 9 11 13 14 14 15 15 14 10 7 6 6 4 3 3 2 1 1 2 3 4 3 4 4 4 3 3 1 1 0
16 15 13 10 7 10 11 15 14 10 6 2 2 3 4 5 5 2 3 5 8 10 12 11 12 13 12 11 8 8 6 4 4 4 3 2 2 2 2 3 3 3 3 4 3 3 2 2 1
15 14 13 12 11 11 9 12 12 10 8 3 1 3 5 5 5 4 2 3 3 5 7 9 11 11 12 12 11 12 8 6 5 4 4 4 4 5 4 4 5 5 4 4 4 3 2 1 2
12 9 11 12 12 12 10 11 9 8 9 3 3 5 7 7 7 7 7 7 7 6 6 8 10 11 11 11 12 11 8 6 5 5 7 6 6 6 6 6 6 6 5 5 5 4 3 1 1
10 8 8 10 11 14 14 12 9 4 2 3 5 7 8 8 9 10 10 11 10 10 10 10 12 11 11 10 9 9 10 9 9 8 7 6 5 6 8 8 7 7 6 6 5 5 5 3 2
14 12 9 12 12 11 9 10 3 8 5 4 6 8 8 8 9 10 11 12 12 12 11 11 13 12 11 11 9 9 9 9 9 8 8 7 6 6 7 7 7 6 6 6 5 4 4 2 1
17 17 11 9 10 9 10 9 8 8 8 8 9 9 10 11 11 12 12 12 12 12 12 13 14 13 12 12 11 10 10 7 8 9 9 8 7 7 7 7 7 7 6 5 4 3 3 2 1
15 16 16 11 9 8 7 7 8 9 9 10 10 11 11 12 12 13 13 13 13 14 14 14 14 14 13 13 13 12 11 11 11 11 10 8 8 8 8 7 7 6 6 5 3 3 2 1 2
14 12 9 12 12 12 10 12 9 13 10 10 11 11 11 12 12 13 13 13 13 13 13 14 14 15 14 13 12 11 12 12 12 11 11 10 9 8 8 7 7 6 5 4 2 1 2 2 3
13 13 11 12 11 11 11 5 6 11 11 11 12 11 11 12 12 11 11 12 12 12 13 13 14 14 13 13 13 13 12 12 12 11 10 9 8 8 7 7 6 5 4 3 2 2 2 3 4
11 12 13 11 11 11 11 5 6 9 11 13 13 12 12 12 11 11 11 11 12 12 13 13 13 13 13 13 13 13 12 12 11 11 10 8 8 7 6 6 5 4 4 3 2 3 3 4 5
Wind_Direction
213 222 251 257 257 251 278 46 7 16 34 30 345 317 331 331 333 28 108 153 150 150 147 155 157 159 156 150 146 142 140 141 142 142 143 142 139 136 133 131 129 128 128 128 127 126 125 124 125
208 219 242 254 268 264 210 73 22 19 14 346 256 255 275 8 45 94 139 151 154 152 152 159 154 159 157 152 148 145 143 143 142 142 143 142 140 138 137 136 135 133 132 132 131 128 126 126 127
198 231 260 264 258 266 279 44 346 354 344 288 270 254 309 30 103 133 142 153 156 154 156 149 157 160 159 156 152 150 148 146 146 146 146 145 143 141 142 142 141 138 136 135 132 129 127 128 129
200 217 241 253 256 257 275 290 313 306 290 257 270 249 110 66 106 131 142 156 157 158 160 149 162 162 161 160 158 155 152 151 150 149 148 147 146 145 146 147 145 143 140 137 133 129 128 129 132
229 241 243 247 252 256 262 279 290 287 283 263 260 260 148 110 113 134 150 159 161 162 161 154 162 162 164 165 164 161 157 154 152 152 151 149 147 148 150 151 149 146 143 139 133 129 127 127 130
222 236 244 246 248 249 254 267 273 274 273 259 248 250 150 128 143 149 156 164 164 163 164 152 161 166 169 170 169 166 162 159 157 155 153 150 150 152 154 155 153 149 145 139 133 130 128 128 130
237 236 244 249 255 252 249 261 263 265 263 250 239 239 149 155 153 155 159 166 166 166 167 161 168 172 174 174 172 170 166 163 160 157 155 155 157 159 160 158 156 152 147 143 138 134 130 128 128
251 246 245 245 250 252 246 247 251 259 267 264 229 235 184 157 154 157 160 168 169 171 175 170 173 174 178 179 178 177 173 170 167 166 167 165 165 170 170 175 159 159 155 148 139 133 128 129 128
237 241 241 237 242 248 237 238 237 255 259 240 228 249 96 143 157 162 164 173 176 177 181 180 176 177 183 182 172 180 180 178 177 179 177 184 191 183 181 177 149 165 161 152 141 139 147 169 160
223 238 242 251 252 254 234 242 251 243 237 229 217 194 143 154 166 174 176 179 182 183 186 184 182 179 185 182 170 187 189 180 198 189 184 199 198 196 190 129 154 171 168 165 156 166 196 224 185
224 243 249 242 245 263 261 255 254 253 244 230 218 191 172 174 178 185 186 186 187 185 187 187 185 185 187 183 178 187 192 180 198 196 191 200 196 194 200 173 171 184 193 196 168 200 209 208 197
234 242 251 247 238 248 261 268 263 252 255 258 237 204 184 188 190 192 192 190 188 189 189 190 185 186 193 189 183 188 192 185 194 187 201 194 200 204 197 211 190 190 198 199 215 208 183 207 198
231 240 235 244 249 255 265 265 267 263 258 251 234 208 197 199 199 197 195 192 191 191 191 191 189 185 190 194 195 193 197 191 192 191 197 206 202 205 196 204 212 225 205 195 218 218 182 218 208
228 237 244 244 246 250 255 259 249 252 249 234 218 211 207 206 205 196 195 195 196 193 192 189 191 185 188 192 199 193 198 195 200 196 198 206 217 205 205 200 201 219 219 229 220 194 199 225 238
240 240 238 236 237 240 249 247 236 239 250 230 215 213 214 213 209 203 198 198 196 194 191 190 190 186 189 194 196 193 193 187 197 192 199 209 223 211 216 215 200 201 181 172 214 190 215 208 199
215 228 233 211 216 220 232 232 203 200 239 229 218 214 217 218 216 209 203 199 198 194 189 190 190 187 188 193 192 191 187 182 187 192 200 212 231 227 228 223 206 181 184 181 179 204 213 218 231
207 219 221 193 198 211 224 239 187 218 255 243 226 221 221 220 222 214 208 199 197 194 190 189 192 187 185 182 178 185 176 172 169 182 216 217 238 241 237 231 191 171 183 200 200 180 229 219 226
207 216 212 209 172 222 230 242 239 246 264 253 243 236 231 231 226 218 212 205 195 192 191 188 187 186 179 175 171 172 156 141 126 115 110 150 236 249 245 213 177 162 155 166 181 159 171 271 253
245 230 217 214 198 251 244 247 250 251 259 256 255 258 251 246 240 225 213 205 197 192 190 188 187 181 176 173 172 167 159 148 133 133 130 164 187 193 197 184 166 172 168 177 180 171 160 149 294
233 235 233 230 226 260 260 258 252 248 251 271 290 295 291 285 272 234 213 200 199 196 193 189 188 180 178 171 162 151 143 138 140 134 117 108 169 193 186 186 173 160 157 159 157 161 171 125 273
226 235 239 244 240 240 259 253 236 223 220 232 309 324 335 336 322 292 198 193 194 194 192 188 183 177 170 152 141 132 129 135 147 149 144 144 141 138 126 134 123 126 133 131 136 146 169 169 149
224 225 240 245 249 241 226 255 211 208 203 180 6 12 10 8 5 6 64 128 144 165 173 173 167 161 151 150 153 155 158 160 158 145 128 102 91 93 97 101 105 101 98 105 108 90 104 153 163
231 218 226 238 245 257 227 248 231 194 210 165 63 34 25 27 32 42 54 71 82 97 118 127 129 129 136 144 149 153 149 136 129 126 110 101 90 85 90 90 91 90 90 90 90 91 79 74 35
220 211 220 236 240 239 233 235 232 168 157 85 66 49 41 44 50 56 62 69 73 79 89 98 101 102 110 118 124 127 128 127 128 125 118 109 97 88 89 90 89 93 95 95 91 87 82 65 55
211 214 212 210 214 230 202 224 190 87 72 70 71 64 55 55 62 63 65 68 71 75 80 88 93 94 96 94 92 100 110 120 124 123 118 115 106 99 95 96 94 91 91 91 92 91 86 82 68
208 220 233 232 221 204 180 220 113 100 99 92 85 79 69 64 63 63 63 66 67 69 72 79 83 83 82 82 83 84 89 92 94 99 106 106 104 101 101 97 96 96 95 95 92 94 87 62 357
208 220 239 260 266 254 193 141 126 131 121 110 98 85 74 68 65 63 61 61 62 65 67 74 79 78 77 79 82 82 83 87 94 99 100 100 102 105 102 101 98 93 87 84 81 71 55 22 328
234 223 222 237 240 237 221 205 173 159 141 122 105 93 83 75 68 63 60 60 61 65 70 72 75 77 77 78 80 84 86 91 96 96 94 96 99 101 102 96 90 87 84 83 78 93 54 348 335
207 216 224 235 246 249 238 185 83 146 142 125 107 96 87 78 72 67 65 65 67 70 74 76 78 80 80 82 84 86 87 90 92 93 95 97 97 97 95 95 96 96 94 84 59 25 5 338 329
216 220 219 232 231 245 266 102 84 123 126 120 110 100 91 85 79 75 74 73 73 73 75 78 81 84 85 85 86 86 87 89 91 92 93 96 94 94 97 98 95 88 75 55 25 357 344 328 319